Time,TemperatureF,DewpointF,PressureIn,WindDirection,WindDirectionDegrees,WindSpeedMPH,WindSpeedGustMPH,Humidity,HourlyPrecipIn,Conditions,Clouds,dailyrainin,SoftwareType,DateUTC
2013-05-05 00:07:00,32.4,28.0,30.25,NW,308,2.0,4.0,82,0.00,,,0.00,weatherlink.com 1.10,2013-05-05 06:07:00,
2013-05-05 00:22:00,32.1,27.0,30.25,NW,316,0.0,2.0,81,0.00,,,0.00,weatherlink.com 1.10,2013-05-05 06:22:00,
2013-05-05 00:37:00,31.7,25.0,30.24,NW,323,2.0,3.0,77,0.00,,,0.00,weatherlink.com 1.10,2013-05-05 06:37:00,
2013-05-05 00:52:00,31.6,24.0,30.24,WNW,299,1.0,1.0,74,0.00,,,0.00,weatherlink.com 1.10,2013-05-05 06:52:00,
2013-05-05 01:07:00,31.4,24.0,30.24,NNW,335,0.0,2.0,73,0.00,,,0.00,weatherlink.com 1.10,2013-05-05 07:07:00,
2013-05-05 01:22:00,31.0,23.0,30.24,NE,37,2.0,2.0,72,0.00,,,0.00,weatherlink.com 1.10,2013-05-05 07:22:00,
2013-05-05 01:37:00,30.2,23.0,30.23,NE,37,0.0,1.0,75,0.00,,,0.00,weatherlink.com 1.10,2013-05-05 07:37:00,
2013-05-05 01:52:00,28.6,23.0,30.23,NE,34,0.0,0.0,79,0.00,,,0.00,weatherlink.com 1.10,2013-05-05 07:52:00,
2013-05-05 02:07:00,27.4,23.0,30.22,NE,34,0.0,1.0,83,0.00,,,0.00,weatherlink.com 1.10,2013-05-05 08:07:00,
2013-05-05 02:23:00,26.9,23.0,30.22,NE,34,0.0,0.0,84,0.00,,,0.00,weatherlink.com 1.10,2013-05-05 08:23:00,
2013-05-05 02:38:00,26.7,23.0,30.22,NE,34,0.0,0.0,85,0.00,,,0.00,weatherlink.com 1.10,2013-05-05 08:38:00,
2013-05-05 02:53:00,26.3,23.0,30.22,NE,34,0.0,0.0,86,0.00,,,0.00,weatherlink.com 1.10,2013-05-05 08:53:00,
2013-05-05 03:08:00,26.4,23.0,30.21,NE,34,0.0,0.0,86,0.00,,,0.00,weatherlink.com 1.10,2013-05-05 09:08:00,
2013-05-05 03:23:00,26.2,23.0,30.21,NE,34,0.0,0.0,87,0.00,,,0.00,weatherlink.com 1.10,2013-05-05 09:23:00,
2013-05-05 03:38:00,25.9,23.0,30.20,NE,34,0.0,0.0,87,0.00,,,0.00,weatherlink.com 1.10,2013-05-05 09:38:00,
2013-05-05 03:53:00,25.8,23.0,30.20,NE,34,0.0,0.0,88,0.00,,,0.00,weatherlink.com 1.10,2013-05-05 09:53:00,
2013-05-05 04:08:00,25.5,23.0,30.20,NE,34,0.0,0.0,88,0.00,,,0.00,weatherlink.com 1.10,2013-05-05 10:08:00,
2013-05-05 04:23:00,25.0,22.0,30.19,NE,34,0.0,0.0,88,0.00,,,0.00,weatherlink.com 1.10,2013-05-05 10:23:00,
2013-05-05 04:38:00,24.5,22.0,30.19,NE,34,0.0,0.0,89,0.00,,,0.00,weatherlink.com 1.10,2013-05-05 10:38:00,
2013-05-05 04:53:00,24.3,22.0,30.19,SW,236,0.0,0.0,89,0.00,,,0.00,weatherlink.com 1.10,2013-05-05 10:53:00,
2013-05-05 05:08:00,23.8,21.0,30.18,SW,235,0.0,0.0,89,0.00,,,0.00,weatherlink.com 1.10,2013-05-05 11:08:00,
2013-05-05 05:23:00,23.4,21.0,30.19,SW,235,0.0,0.0,90,0.00,,,0.00,weatherlink.com 1.10,2013-05-05 11:23:00,
2013-05-05 05:38:00,23.8,22.0,30.18,SW,221,0.0,0.0,91,0.00,,,0.00,weatherlink.com 1.10,2013-05-05 11:38:00,
2013-05-05 05:53:00,23.5,21.0,30.18,SW,221,0.0,0.0,91,0.00,,,0.00,weatherlink.com 1.10,2013-05-05 11:53:00,
2013-05-05 06:08:00,23.2,21.0,30.18,SW,221,0.0,0.0,91,0.00,,,0.00,weatherlink.com 1.10,2013-05-05 12:08:00,
2013-05-05 06:23:00,23.6,21.0,30.18,SW,221,0.0,0.0,91,0.00,,,0.00,weatherlink.com 1.10,2013-05-05 12:23:00,
2013-05-05 06:38:00,25.3,23.0,30.19,SW,217,0.0,2.0,89,0.00,,,0.00,weatherlink.com 1.10,2013-05-05 12:38:00,
2013-05-05 06:53:00,27.5,24.0,30.19,SW,219,0.0,1.0,86,0.00,,,0.00,weatherlink.com 1.10,2013-05-05 12:53:00,
2013-05-05 07:08:00,28.8,24.0,30.19,SSW,212,0.0,2.0,82,0.00,,,0.00,weatherlink.com 1.10,2013-05-05 13:08:00,
2013-05-05 07:23:00,29.2,24.0,30.19,SW,236,0.0,1.0,80,0.00,,,0.00,weatherlink.com 1.10,2013-05-05 13:23:00,
2013-05-05 07:38:00,30.5,25.0,30.18,NNW,334,1.0,2.0,79,0.00,,,0.00,weatherlink.com 1.10,2013-05-05 13:38:00,
2013-05-05 07:53:00,32.2,25.0,30.18,NNW,335,1.0,1.0,76,0.00,,,0.00,weatherlink.com 1.10,2013-05-05 13:53:00,
2013-05-05 08:08:00,34.2,25.0,30.18,East,92,1.0,2.0,69,0.00,,,0.00,weatherlink.com 1.10,2013-05-05 14:08:00,
2013-05-05 08:23:00,35.5,25.0,30.18,ENE,75,1.0,2.0,67,0.00,,,0.00,weatherlink.com 1.10,2013-05-05 14:23:00,
2013-05-05 08:38:00,36.7,25.0,30.18,NE,51,2.0,3.0,62,0.00,,,0.00,weatherlink.com 1.10,2013-05-05 14:38:00,
2013-05-05 08:53:00,37.4,25.0,30.18,NE,37,1.0,4.0,61,0.00,,,0.00,weatherlink.com 1.10,2013-05-05 14:53:00,
2013-05-05 09:08:00,37.6,25.0,30.17,WNW,294,1.0,4.0,60,0.00,,,0.00,weatherlink.com 1.10,2013-05-05 15:08:00,
2013-05-05 09:23:00,38.4,25.0,30.17,ESE,105,0.0,3.0,59,0.00,,,0.00,weatherlink.com 1.10,2013-05-05 15:23:00,
2013-05-05 09:38:00,39.5,26.0,30.17,NE,41,1.0,6.0,58,0.00,,,0.00,weatherlink.com 1.10,2013-05-05 15:38:00,
2013-05-05 09:53:00,38.5,24.0,30.17,NE,56,2.0,5.0,56,0.00,,,0.00,weatherlink.com 1.10,2013-05-05 15:53:00,
2013-05-05 10:09:00,37.6,23.0,30.18,ENE,68,8.0,10.0,56,0.00,,,0.00,weatherlink.com 1.10,2013-05-05 16:09:00,
2013-05-05 10:25:00,36.4,22.0,30.18,East,95,8.0,11.0,57,0.00,,,0.00,weatherlink.com 1.10,2013-05-05 16:25:00,
2013-05-05 10:39:00,35.6,22.0,30.19,East,82,4.0,9.0,59,0.00,,,0.00,weatherlink.com 1.10,2013-05-05 16:39:00,
2013-05-05 10:54:00,35.2,23.0,30.19,ESE,106,3.0,6.0,61,0.00,,,0.00,weatherlink.com 1.10,2013-05-05 16:54:00,
2013-05-05 11:09:00,36.8,24.0,30.19,East,91,1.0,6.0,60,0.00,,,0.00,weatherlink.com 1.10,2013-05-05 17:09:00,
2013-05-05 11:24:00,37.6,23.0,30.19,East,81,3.0,4.0,57,0.00,,,0.00,weatherlink.com 1.10,2013-05-05 17:24:00,
2013-05-05 11:39:00,38.6,24.0,30.18,NE,51,2.0,5.0,55,0.00,,,0.00,weatherlink.com 1.10,2013-05-05 17:39:00,
2013-05-05 11:54:00,39.9,25.0,30.17,NNE,31,1.0,5.0,55,0.00,,,0.00,weatherlink.com 1.10,2013-05-05 17:54:00,
2013-05-05 12:09:00,41.2,25.0,30.16,ENE,69,3.0,5.0,52,0.00,,,0.00,weatherlink.com 1.10,2013-05-05 18:09:00,
2013-05-05 12:24:00,42.1,25.0,30.16,East,100,3.0,6.0,50,0.00,,,0.00,weatherlink.com 1.10,2013-05-05 18:24:00,
2013-05-05 12:39:00,43.0,26.0,30.14,ENE,68,4.0,5.0,52,0.00,,,0.00,weatherlink.com 1.10,2013-05-05 18:39:00,
2013-05-05 12:54:00,44.5,27.0,30.14,East,84,5.0,7.0,50,0.00,,,0.00,weatherlink.com 1.10,2013-05-05 18:54:00,
2013-05-05 13:09:00,44.9,27.0,30.14,East,92,4.0,7.0,49,0.00,,,0.00,weatherlink.com 1.10,2013-05-05 19:09:00,
2013-05-05 13:24:00,43.9,27.0,30.14,East,83,2.0,4.0,51,0.00,,,0.00,weatherlink.com 1.10,2013-05-05 19:24:00,
2013-05-05 13:39:00,43.4,27.0,30.14,ENE,67,4.0,6.0,52,0.00,,,0.00,weatherlink.com 1.10,2013-05-05 19:39:00,
2013-05-05 13:54:00,43.2,28.0,30.14,East,79,2.0,4.0,55,0.00,,,0.00,weatherlink.com 1.10,2013-05-05 19:54:00,
2013-05-05 14:09:00,44.1,28.0,30.14,ENE,71,5.0,6.0,53,0.00,,,0.00,weatherlink.com 1.10,2013-05-05 20:09:00,
2013-05-05 14:24:00,44.0,29.0,30.13,East,79,6.0,8.0,55,0.00,,,0.00,weatherlink.com 1.10,2013-05-05 20:24:00,
2013-05-05 14:39:00,42.7,29.0,30.13,ENE,60,2.0,10.0,58,0.00,,,0.00,weatherlink.com 1.10,2013-05-05 20:39:00,
2013-05-05 14:54:00,41.1,28.0,30.13,East,80,5.0,7.0,61,0.00,,,0.00,weatherlink.com 1.10,2013-05-05 20:54:00,
2013-05-05 15:09:00,41.9,28.0,30.12,ENE,76,3.0,6.0,59,0.00,,,0.00,weatherlink.com 1.10,2013-05-05 21:09:00,
2013-05-05 15:24:00,42.8,29.0,30.11,NE,46,7.0,7.0,59,0.00,,,0.00,weatherlink.com 1.10,2013-05-05 21:24:00,
2013-05-05 15:39:00,41.9,28.0,30.11,East,84,6.0,9.0,59,0.00,,,0.00,weatherlink.com 1.10,2013-05-05 21:39:00,
2013-05-05 15:54:00,41.6,29.0,30.11,ENE,73,5.0,7.0,61,0.00,,,0.00,weatherlink.com 1.10,2013-05-05 21:54:00,
2013-05-05 16:09:00,41.8,29.0,30.10,East,87,3.0,7.0,61,0.00,,,0.00,weatherlink.com 1.10,2013-05-05 22:09:00,
2013-05-05 16:24:00,42.4,29.0,30.10,East,90,6.0,6.0,60,0.00,,,0.00,weatherlink.com 1.10,2013-05-05 22:24:00,
2013-05-05 16:39:00,42.4,30.0,30.11,East,95,8.0,8.0,61,0.00,,,0.00,weatherlink.com 1.10,2013-05-05 22:39:00,
2013-05-05 16:54:00,42.1,29.0,30.11,ENE,61,6.0,8.0,61,0.00,,,0.00,weatherlink.com 1.10,2013-05-05 22:54:00,
2013-05-05 17:09:00,41.6,30.0,30.12,East,80,2.0,8.0,64,0.00,,,0.00,weatherlink.com 1.10,2013-05-05 23:09:00,
2013-05-05 17:24:00,41.5,29.0,30.12,ESE,110,2.0,5.0,62,0.00,,,0.00,weatherlink.com 1.10,2013-05-05 23:24:00,
2013-05-05 17:39:00,40.9,29.0,30.13,ENE,71,3.0,4.0,63,0.00,,,0.00,weatherlink.com 1.10,2013-05-05 23:39:00,
2013-05-05 17:54:00,40.7,28.0,30.14,NNE,33,1.0,6.0,61,0.00,,,0.00,weatherlink.com 1.10,2013-05-05 23:54:00,
2013-05-05 18:09:00,40.6,29.0,30.14,ENE,61,1.0,8.0,64,0.00,,,0.00,weatherlink.com 1.10,2013-05-06 00:09:00,
2013-05-05 18:24:00,37.7,30.0,30.14,NNW,340,3.0,6.0,75,0.00,,,0.00,weatherlink.com 1.10,2013-05-06 00:24:00,
2013-05-05 18:39:00,35.7,31.0,30.14,WSW,253,0.0,5.0,82,0.00,,,0.00,weatherlink.com 1.10,2013-05-06 00:39:00,
2013-05-05 18:54:00,35.3,31.0,30.14,NW,321,0.0,4.0,84,0.00,,,0.00,weatherlink.com 1.10,2013-05-06 00:54:00,
2013-05-05 19:09:00,35.4,31.0,30.13,North,349,0.0,1.0,85,0.00,,,0.00,weatherlink.com 1.10,2013-05-06 01:09:00,
2013-05-05 19:24:00,35.2,31.0,30.14,North,350,0.0,1.0,86,0.00,,,0.00,weatherlink.com 1.10,2013-05-06 01:24:00,
2013-05-05 19:39:00,34.7,31.0,30.14,North,349,0.0,1.0,86,0.00,,,0.00,weatherlink.com 1.10,2013-05-06 01:39:00,
2013-05-05 19:54:00,33.9,30.0,30.14,North,349,0.0,0.0,86,0.00,,,0.00,weatherlink.com 1.10,2013-05-06 01:54:00,
2013-05-05 20:09:00,32.8,29.0,30.14,North,349,0.0,0.0,87,0.00,,,0.00,weatherlink.com 1.10,2013-05-06 02:09:00,
2013-05-05 20:24:00,32.6,30.0,30.15,North,349,1.0,1.0,89,0.00,,,0.00,weatherlink.com 1.10,2013-05-06 02:24:00,
2013-05-05 20:39:00,33.0,30.0,30.15,North,350,0.0,0.0,87,0.00,,,0.00,weatherlink.com 1.10,2013-05-06 02:39:00,
2013-05-05 20:54:00,33.1,30.0,30.14,North,349,0.0,0.0,87,0.00,,,0.00,weatherlink.com 1.10,2013-05-06 02:54:00,
2013-05-05 21:09:00,33.4,30.0,30.15,WNW,297,0.0,0.0,86,0.00,,,0.00,weatherlink.com 1.10,2013-05-06 03:09:00,
2013-05-05 21:24:00,33.6,30.0,30.15,SSW,203,0.0,1.0,85,0.00,,,0.00,weatherlink.com 1.10,2013-05-06 03:24:00,
2013-05-05 21:39:00,33.4,29.0,30.16,SSW,203,0.0,0.0,85,0.00,,,0.00,weatherlink.com 1.10,2013-05-06 03:39:00,
2013-05-05 21:54:00,33.4,29.0,30.16,West,270,1.0,2.0,85,0.00,,,0.00,weatherlink.com 1.10,2013-05-06 03:54:00,
2013-05-05 22:09:00,33.6,29.0,30.16,ENE,77,0.0,2.0,84,0.00,,,0.00,weatherlink.com 1.10,2013-05-06 04:09:00,
2013-05-05 22:24:00,33.5,30.0,30.16,East,79,0.0,1.0,85,0.00,,,0.00,weatherlink.com 1.10,2013-05-06 04:24:00,
2013-05-05 22:39:00,33.5,30.0,30.16,WSW,240,0.0,0.0,85,0.00,,,0.00,weatherlink.com 1.10,2013-05-06 04:39:00,
2013-05-05 22:54:00,33.3,29.0,30.16,WSW,256,0.0,0.0,85,0.00,,,0.00,weatherlink.com 1.10,2013-05-06 04:54:00,
2013-05-05 23:09:00,33.3,29.0,30.15,ENE,66,0.0,2.0,85,0.00,,,0.00,weatherlink.com 1.10,2013-05-06 05:09:00,
2013-05-05 23:24:00,33.1,29.0,30.15,SSE,155,1.0,2.0,86,0.00,,,0.00,weatherlink.com 1.10,2013-05-06 05:24:00,
2013-05-05 23:40:00,33.1,29.0,30.14,SW,233,0.0,4.0,85,0.00,,,0.00,weatherlink.com 1.10,2013-05-06 05:40:00,
2013-05-05 23:55:00,33.0,29.0,30.14,SSW,210,1.0,4.0,85,0.00,,,0.00,weatherlink.com 1.10,2013-05-06 05:55:00,